Location: Ingoldesthorpe
(52.8667°N, 0.5167°E)
Time: 06:51:24
(UTC+00:00)

IRS-1C Rocket - Pass Details

Date: 19 May 2025
Orbit: 798 x 805 km, 98.8° (Epoch: 18 June)

Event Time Altitude Azimuth Distance (km) Brightness Sun altitude
Exits shadow 21:15:29 - 171° (S) 2,548 6.2 -9.4°
Reaches altitude 10° 21:15:54 10° 172° (S) 2,380 6.0 -9.5°
Maximum altitude 21:21:09 70° 256° (WSW) 856 4.3 -10.0°
Drops below altitude 10° 21:26:26 10° 341° (NNW) 2,393 8.0 -10.4°
Sets 21:28:48 0° 343° (NNW) 3,327 8.9 -10.6°
